Theta_e
300 300 300 300 300 300 300 301 303 302 301 301 301 300 302 302 300 300 301 301 300 300 300 301 300 300 300 300 300 300 296 296 298 298 298 299 298 300 301 300 300 301 301 301 301
300 300 300 300 300 301 301 301 302 301 301 301 301 301 302 302 301 300 299 299 300 300 300 300 300 299 301 301 300 297 296 297 297 298 298 299 299 300 300 299 299 301 301 300 300
300 300 300 300 300 301 301 301 302 301 301 301 301 301 302 303 303 299 299 299 300 300 299 299 299 299 300 300 300 298 297 298 299 299 300 299 299 300 298 297 299 298 298 300 300
301 300 300 300 300 301 301 301 302 301 301 301 301 301 302 303 299 299 300 300 300 299 299 298 299 299 298 299 299 298 298 299 299 300 299 298 299 298 299 297 298 296 296 297 299
301 301 301 301 300 301 301 301 301 301 301 301 300 301 302 300 300 300 300 300 299 299 299 298 298 299 298 298 298 298 298 299 300 299 299 299 298 298 297 298 298 297 297 297 296
301 301 301 301 301 301 301 301 301 301 301 300 300 301 302 299 300 300 300 300 300 301 300 299 298 298 298 299 298 299 299 298 299 300 298 297 297 298 295 293 295 295 295 294 295
302 301 301 301 301 301 301 302 301 301 301 300 301 301 300 299 300 300 300 300 301 300 301 301 300 299 299 298 299 299 298 298 298 297 297 297 297 295 291 292 292 291 292 293 292
303 302 302 301 301 301 302 302 301 301 300 301 301 302 301 300 300 300 300 300 300 300 301 301 301 300 300 298 296 297 298 295 297 296 297 296 295 292 290 290 289 289 289 289 292
304 305 304 302 301 301 302 302 301 301 300 300 300 302 299 300 300 300 300 300 300 299 300 300 301 299 297 295 295 295 296 296 296 296 296 295 295 293 291 289 288 287 287 287 288
309 305 304 303 302 301 302 302 301 300 300 300 300 299 300 300 300 300 300 300 300 300 300 300 298 295 295 296 294 297 296 296 295 295 296 296 294 292 292 289 288 287 287 286 286
312 311 308 306 302 301 302 301 302 302 299 300 299 299 300 300 300 300 300 299 299 299 298 298 296 297 297 297 297 296 296 296 294 294 295 295 293 292 291 289 288 287 286 285 285
315 315 308 304 302 301 301 300 299 301 299 299 299 299 299 300 300 300 299 299 298 297 296 296 298 297 297 297 297 297 297 295 295 294 294 294 292 289 291 290 287 286 285 284 284
315 315 312 302 302 301 301 299 300 300 301 300 299 299 299 300 299 299 299 298 297 298 297 297 298 298 297 297 297 297 296 296 294 294 294 294 290 290 291 290 288 286 284 283 282
315 314 312 302 302 300 300 298 300 303 299 300 299 298 299 299 299 299 298 298 297 298 297 297 298 298 297 298 295 291 295 294 294 292 294 291 290 293 289 290 288 285 283 282 282
315 315 314 303 301 300 299 299 300 304 304 299 298 298 299 299 299 299 298 298 297 297 295 298 297 297 292 298 295 293 294 293 293 293 290 296 290 289 288 288 286 283 282 281 281
315 315 314 308 303 301 298 299 301 304 306 300 298 298 298 298 298 299 298 298 297 296 296 296 296 295 296 295 294 293 290 293 293 294 293 291 293 291 284 283 283 281 280 280 281
315 315 315 311 303 301 298 302 305 306 300 299 298 298 298 298 298 297 296 295 296 294 293 295 297 296 294 293 294 289 288 287 291 288 292 294 294 289 282 282 279 278 278 280 280
315 315 315 311 302 301 300 303 303 303 298 296 298 298 300 297 297 297 296 296 294 293 288 290 296 294 294 290 290 292 287 288 291 294 292 294 293 291 281 282 280 279 279 280 280
316 315 313 309 301 301 301 302 304 301 298 297 298 299 298 297 297 298 297 296 295 291 292 285 291 294 292 291 291 293 293 292 287 289 290 292 293 286 286 284 279 277 280 279 279
315 313 310 306 302 299 302 303 299 297 297 298 301 298 297 294 297 297 297 296 296 295 292 288 292 295 294 291 292 293 292 290 289 289 291 294 293 292 286 281 279 276 279 279 279
313 310 305 301 298 300 301 300 297 295 297 298 298 298 297 295 296 295 298 296 295 293 293 289 290 294 293 285 288 291 292 291 290 291 290 293 292 283 281 280 278 278 279 279 279
311 306 301 295 300 298 301 298 295 295 296 296 296 297 295 294 294 297 299 297 295 295 295 293 287 290 288 283 287 289 284 287 287 290 290 292 291 284 280 276 279 279 279 279 279
308 301 297 297 304 300 297 296 295 294 296 296 297 296 290 293 294 292 297 295 296 294 293 292 293 291 295 291 291 287 288 289 286 287 287 289 292 281 281 282 279 279 278 278 278
306 303 299 295 298 299 298 299 298 295 296 296 296 294 290 290 290 291 295 295 295 295 295 294 290 289 294 292 281 287 286 288 288 282 284 287 288 288 282 278 277 277 278 278 278
307 305 301 300 299 298 299 299 298 300 295 296 296 296 294 292 288 290 293 294 295 297 295 292 289 286 283 277 279 283 288 285 285 281 287 285 283 286 281 275 276 277 277 278 278
306 302 298 297 299 298 300 303 300 298 296 296 297 294 292 293 295 294 293 295 296 294 294 290 290 287 290 279 276 287 284 282 283 278 280 275 281 276 281 280 279 277 277 277 277
304 303 302 299 299 301 302 302 299 298 298 295 295 295 293 293 293 294 294 294 294 291 292 288 289 286 291 284 287 288 286 281 279 275 282 286 285 269 275 277 279 279 278 278 278
Wind_Speed
11 12 13 13 14 17 18 17 17 16 14 10 7 3 4 5 4 10 18 14 16 20 18 13 8 5 5 4 4 3 3 2 4 3 4 6 6 5 11 11 11 13 20 19 23
11 12 13 14 15 17 19 17 17 14 12 9 6 3 3 2 2 8 17 13 19 22 16 11 10 7 4 3 3 4 3 5 3 1 4 6 5 12 6 9 11 21 27 26 25
11 12 13 15 15 16 18 17 17 13 10 8 5 3 2 1 3 12 16 18 24 18 8 6 6 5 5 3 4 1 4 1 3 6 5 6 6 6 6 3 8 23 26 27 25
12 12 13 14 16 16 18 16 16 12 8 6 4 2 3 3 2 15 18 23 18 7 6 6 6 4 3 3 3 3 5 3 7 8 10 7 8 4 8 8 15 12 14 16 15
11 12 13 14 15 17 17 15 15 10 7 5 2 1 2 3 7 15 21 14 8 8 9 7 14 4 3 3 5 4 3 7 20 24 14 12 5 5 2 11 8 10 13 14 16
11 12 13 13 15 16 16 15 15 9 5 3 2 0 2 4 9 18 16 9 9 10 12 12 7 5 1 2 1 5 9 16 12 9 5 8 6 5 8 18 16 16 18 17 15
12 13 13 14 15 16 15 14 14 8 3 1 1 0 2 3 7 19 9 7 8 8 11 11 10 6 4 3 5 7 5 6 3 6 6 19 1 6 15 16 17 21 21 18 17
13 14 15 15 15 16 14 14 10 6 2 1 2 1 2 4 6 18 4 3 5 5 5 7 5 3 4 11 7 5 1 5 4 4 3 8 6 3 15 18 18 23 24 22 16
14 15 16 16 16 15 14 14 7 5 3 2 2 1 3 4 7 17 6 2 1 3 3 4 4 3 4 4 4 4 7 7 7 3 3 4 8 3 11 16 16 19 22 25 23
15 16 16 17 16 15 14 12 5 5 5 5 2 4 2 4 6 14 3 4 1 4 3 4 3 3 3 6 3 12 7 5 10 4 1 3 9 4 10 14 15 18 23 26 27
16 17 17 17 17 14 13 8 3 5 3 2 4 4 2 6 1 14 8 1 2 5 3 4 4 2 4 3 7 7 9 13 10 6 4 3 3 4 7 10 17 19 22 25 29
16 17 16 17 17 12 14 8 6 6 6 3 2 1 2 5 2 11 11 1 4 3 3 4 2 2 5 6 7 10 13 8 7 4 4 2 5 3 3 5 13 16 21 25 31
16 16 15 16 14 13 11 14 7 1 2 2 2 1 1 2 3 7 11 2 3 3 3 3 1 4 5 6 8 8 5 4 8 11 3 3 6 2 2 3 14 15 18 22 27
16 16 16 15 8 15 9 13 2 3 4 3 2 1 1 2 2 5 7 1 3 2 1 4 3 4 9 5 4 5 4 10 16 3 3 2 4 4 1 4 12 20 21 24 30
16 17 16 13 12 10 12 8 1 4 4 1 2 2 1 2 1 3 7 1 3 1 4 1 4 5 3 5 1 8 13 14 7 3 3 3 2 5 3 5 15 18 22 24 28
16 17 16 12 12 10 10 4 2 5 5 1 2 1 1 4 3 5 2 5 3 3 1 4 3 4 4 7 1 10 5 1 3 1 2 3 3 4 2 4 11 17 20 22 26
18 17 16 12 8 8 7 4 4 3 2 2 1 2 2 3 2 6 4 6 4 5 6 5 2 1 2 6 1 9 6 4 5 4 4 1 2 6 4 4 4 13 24 23 25
20 19 16 11 7 3 4 4 1 2 4 1 2 1 1 2 2 3 3 2 2 4 3 3 7 2 4 3 3 5 4 3 4 4 6 4 5 4 5 7 13 20 18 20 26
24 20 15 10 4 1 4 2 6 5 3 3 1 3 2 1 2 1 2 3 3 4 4 3 6 1 1 1 2 3 5 2 1 3 3 3 1 4 4 8 12 18 17 21 26
26 17 10 7 4 6 3 6 3 0 2 3 4 2 2 3 1 1 2 3 4 2 4 4 4 3 2 1 3 4 1 2 1 5 5 5 4 3 6 12 12 13 17 21 24
24 5 4 6 8 6 3 6 3 2 3 3 3 3 3 3 3 2 3 2 3 4 5 4 3 4 2 1 4 2 2 2 1 1 2 4 6 4 3 7 8 10 16 18 21
12 1 7 12 4 2 3 3 2 2 3 2 2 2 5 3 3 3 3 2 6 8 5 4 4 5 6 4 3 2 5 3 3 4 2 2 6 3 5 6 6 10 14 15 15
5 4 9 12 3 3 3 3 3 2 2 3 3 2 2 4 1 3 2 2 8 4 5 6 1 4 7 2 0 2 3 3 3 2 3 1 6 0 2 4 8 9 11 13 13
4 2 3 9 4 3 1 3 3 2 1 2 3 4 3 0 1 2 2 3 7 2 7 6 3 6 5 7 1 2 3 4 3 2 2 6 11 10 7 6 10 11 10 11 12
7 2 5 3 5 4 2 1 1 2 2 5 2 6 6 3 2 4 2 2 2 5 3 3 3 3 5 5 1 4 5 4 6 5 4 4 5 16 9 7 11 12 13 10 11
4 3 4 3 4 7 6 4 9 4 5 4 5 1 6 5 6 6 6 5 4 2 4 1 2 1 4 2 3 5 5 6 4 3 7 3 8 4 10 12 17 19 18 17 12
9 5 2 6 3 4 4 4 4 6 6 2 5 3 4 8 5 2 4 6 6 7 4 4 3 2 5 2 5 6 7 5 2 3 5 2 5 3 5 8 7 7 9 11 12
Wind_Direction
360 354 356 355 356 352 352 352 353 353 353 360 9 44 114 139 114 1 9 14 357 350 342 340 355 5 94 91 99 119 62 243 253 202 262 346 358 290 313 276 301 308 306 297 302
358 353 349 351 355 352 349 351 352 355 355 2 15 67 119 145 298 347 3 359 345 335 338 357 14 36 88 73 80 84 126 230 223 306 271 294 290 302 296 281 291 300 303 305 303
352 351 348 349 351 350 347 349 351 354 354 358 11 75 89 295 332 355 351 342 332 334 346 352 356 55 70 44 27 98 207 221 273 283 288 286 272 284 289 290 289 316 307 301 306
350 350 348 347 346 347 347 348 350 352 354 351 2 95 61 30 1 350 347 331 331 8 14 18 39 62 70 45 12 347 281 254 281 287 303 284 300 278 274 322 341 339 340 323 319
348 349 345 344 343 344 346 346 347 349 350 350 356 127 81 53 14 355 347 354 23 45 43 61 52 56 55 323 332 192 265 304 297 297 296 298 256 265 316 346 316 316 326 334 328
344 345 345 342 340 342 343 344 344 340 341 357 47 104 125 79 13 2 353 21 54 55 61 62 63 66 156 260 242 288 297 296 301 297 315 318 284 278 19 343 334 328 330 330 322
344 343 345 340 337 340 340 338 336 327 313 302 6 92 143 97 17 4 352 42 57 60 67 68 76 59 333 307 317 293 313 310 309 329 7 348 21 45 348 349 345 342 340 327 332
343 343 343 339 336 338 337 334 333 320 250 264 2 141 121 357 356 351 5 49 58 55 68 67 70 52 20 315 355 342 337 345 294 24 7 33 284 5 3 10 3 351 341 338 340
339 340 338 337 335 339 338 338 337 316 238 239 296 141 115 2 15 4 38 67 135 25 73 54 40 40 10 26 7 7 295 282 310 59 14 79 292 2 7 18 2 357 345 341 339
338 339 338 334 338 341 340 342 320 309 254 253 250 132 80 344 41 16 60 39 65 108 100 38 34 51 35 45 304 292 303 284 287 294 15 275 274 346 357 24 4 355 346 341 337
334 336 332 331 340 341 349 350 331 275 256 238 140 115 74 355 206 9 15 251 48 75 48 17 39 319 285 225 245 265 264 271 273 275 303 247 254 317 343 25 7 357 345 337 335
329 334 333 329 336 347 351 1 318 278 300 213 177 149 50 14 71 8 10 102 55 61 355 17 262 221 283 277 270 270 279 279 274 244 301 280 256 226 297 52 20 354 343 337 340
331 336 332 332 335 341 352 355 342 161 277 253 211 164 62 41 83 3 11 60 83 82 39 178 337 336 311 293 320 295 245 263 290 314 251 292 294 184 202 180 0 357 344 342 343
328 333 338 339 337 343 352 349 356 346 57 227 206 138 21 114 99 19 12 30 53 85 6 243 344 316 303 280 26 309 242 298 307 294 254 106 287 218 257 283 4 354 351 345 346
318 326 334 345 336 346 341 344 121 344 356 133 147 144 62 95 342 354 17 26 108 77 84 289 5 329 334 287 144 258 307 298 278 190 21 183 43 271 5 319 341 349 347 344 347
297 308 320 331 333 340 345 347 333 42 257 160 100 357 126 30 22 341 14 59 93 101 257 263 292 169 248 309 200 301 329 310 43 86 337 237 144 274 327 294 323 335 341 347 347
280 289 300 317 317 331 344 347 21 156 20 255 197 43 78 355 37 33 36 15 43 35 8 335 229 324 356 315 145 23 359 356 359 7 240 215 208 262 192 255 281 318 329 346 350
267 274 284 301 303 321 3 34 154 237 225 107 91 102 181 356 51 24 90 100 59 73 77 46 323 47 332 152 209 27 90 110 280 325 291 274 235 290 199 215 353 342 340 346 359
253 257 267 277 234 270 80 72 223 210 156 155 110 74 321 295 144 101 57 138 156 158 140 74 278 107 305 306 149 313 45 168 236 225 293 253 261 109 216 324 340 342 349 350 356
248 244 246 250 220 140 76 251 238 91 148 78 174 126 226 265 27 96 200 164 157 150 153 188 318 191 203 303 32 86 47 63 33 350 311 306 290 251 319 327 330 340 347 350 356
235 204 189 169 150 109 175 237 280 240 260 117 198 174 218 233 189 220 192 165 181 139 118 132 117 285 38 358 172 6 48 39 216 185 245 306 282 193 218 296 306 319 343 351 357
209 112 164 158 96 172 225 207 310 223 237 97 129 127 181 175 195 244 218 217 169 154 137 190 150 276 239 258 220 119 151 149 112 298 266 288 276 169 196 252 309 339 348 354 359
184 137 167 176 196 205 290 291 254 222 195 179 188 123 95 191 330 216 223 127 158 159 161 178 191 338 343 1 35 125 184 178 144 58 225 243 280 183 282 332 6 353 358 4 6
183 150 156 195 216 180 176 231 253 259 127 202 129 119 103 125 345 258 229 184 184 158 136 137 139 176 200 231 149 317 201 174 132 121 245 227 290 306 333 348 340 346 6 29 29
208 209 176 196 226 155 88 193 343 270 231 212 231 216 169 186 330 233 216 158 188 173 114 123 197 188 247 238 246 244 221 199 177 206 178 256 260 293 321 322 325 358 359 24 43
217 180 172 168 146 156 178 224 195 187 195 236 227 219 170 190 193 214 161 190 193 172 148 54 258 111 289 351 259 278 235 199 200 202 274 340 287 214 313 340 357 356 1 4 18
230 202 192 171 173 167 207 205 215 167 243 239 210 151 202 235 195 94 120 96 153 152 158 122 123 57 273 327 323 326 218 194 197 212 155 205 243 351 325 337 337 351 10 13 5